Location: Newark
(27.9675°N, 86.8869°E)
Time: 05:36:20
(UTC+00:00)

A-11 Canister half - Pass Details

Date: 30 October 2019
Orbit: 1527 x 1682 km, 47.3° (Epoch: 12 November)

Event Time Altitude Azimuth Distance (km) Brightness Sun altitude
Rises 15:58:42 0° 311° (NW) 4,706 12.0 -59.3°
Reaches altitude 10° 16:02:17 10° 322° (NW) 3,709 11.3 -60.0°
Enters shadow 16:02:50 12° 324° (NW) 3,569 11.1 -60.1°
